FENGYUN 1C DEB, 31199

Orbit data source: Space-Track

FENGYUN 1C DEB, 31199 is space debris in SSO originally from a launch on Mon, 10 May 1999 UTC launched from the Taiyaun Space Center, China (TSC). Fengyun 1C debris stems from the Chinese weather satellite Fengyun-1C, which was intentionally destroyed by a Chinese anti-satellite missile in 2007. This event dramatically increased the amount of space debris, with thousands of trackable fragments posing hazards to satellites and human spaceflight. The Fengyun 1C debris cloud has become a focal point in discussions about space sustainability and the need for international regulations to prevent the creation of new debris.

Loading next visibility...
Identifier
31199, 1999-025BKD
Orbit
SSO
Country
Flag of CNCN / PRC
Related business
Manufacturer
Unknown
Mission
Spacecraft
Bus & Motor
Unknown
Mass
Unknown
Launch date (UTC)
1999-05-10 (27 years ago)
Launch vehicle
Unknown
Launch site
Taiyaun Space Center, China (TSC)
Object type
Payload
Rocket body
Debris
Shape & HBR
Unknown shape, 0.1 m
Radar Cross Section
Small (<0.1 m²)

Expand to show TLE details & history
Last TLE update: 19 hours ago

TLE from 19 hours ago
0 FENGYUN 1C DEB
1 31199U 99025BKD 26254.70488817  .00000207  00000-0  13851-3 0  9990
2 31199  98.7420 234.4464 0063309 205.5036 329.5973 14.10157252    11
Epoch: 2026-09-11T16:55Z
TLE epoch observation values (Epoch: 2026-09-11T16:55:02.337Z)
Latitude
5.123°
Longitude
170.74796°
Altitude
821.766 km
Speed
7.463 km/s
True Right ascension
03h 40m 55s
True Declination
5° 05' 34"
Sunlit
Object was in daylight at epoch
Visualization orbit readout
Latitude
Unknown
Longitude
Unknown
Altitude
Unknown
Speed
Unknown
Apparent Right ascension
Unknown
Apparent Declination
Unknown
Sunlit
N/A
Visualization observer readout
Local Sidereal Time
04:44:15
Azimuth
Unknown
Elevation
Unknown
Doppler factor
Unknown
Orbital elements
Apogee altitude
901.805 km
Perigee altitude
810.208 km
Semi-major axis
7,234.144 km
Eccentricity
0.00633
Inclination
98.742°
RAAN
234.4464°
Arg. of periapsis
205.5036°
True anomaly
329.22764°
Mean anomaly
329.5973°
Eccentric anomaly
329.41272°
Mean motion
3.52746 °/min
Orbital period
102.06 mins
BSTAR
0.00013851
Loading maneuver chart data...
Computing Atmospheric mass density...

Documentation

Showing up to 5 results
|